AMC-14

Last updated on Tue Sep 22 2026 00:03:11 GMT+0000 (Coordinated Universal Time)

1 32708U 08011A 26263.85788786 -.00000356 00000+0 00000+0 0 9999 2 32708 24.1199 19.3634 0035109 1.2608 44.1052 1.00436689 69131
UTC large
Height (km)
Speed (km/s)
/
Latitude / Longitude
Inclination (degrees)
Orbital Period (minutes)
Azimuth
Elevation
Range (km)
Doppler Factor

Next 0 passes for location: London (51.5072 / 0.1276)

No passes found over London.
AMC-14